Regional Weather Roundup
Issued by NWS Little Rock, AR

Home | Current Version | Previous Version | Graphics & Text | Print | Product List | Glossary On
Versions: 1 2 3 4 5 6 7 8 9 10 11 12 13 14 15 16 17 18 19 20 21 22 23 24 25 26 27 28 29 30 31 32 33 34 35 36 37 38 39 40 41 42 43 44 45 46 47 48 49 50
000
ASUS44 KLZK 020605
RWRLZK

WEATHER ROUNDUP FOR ARKANSAS
NATIONAL WEATHER SERVICE LITTLE ROCK AR
100 AM CDT THU JUL 02 2015

NOTE: "FAIR" INDICATES FEW OR NO CLOUDS BELOW 12,000 FEET WITH NO
SIGNIFICANT WEATHER AND/OR OBSTRUCTIONS TO VISIBILITY.

ARZ001-003-010-029-020700-
NORTHWEST ARKANSAS

CITY           SKY/WX    TMP DP  RH WIND       PRES   REMARKS
FAYETTEVILLE   PTCLDY    78  70  76 SW14      29.90S
6HR MIN TEMP:  78; 6HR MAX TEMP:  83;

FORT SMITH     CLEAR     83  69  62 SW10      29.88R HX  86
6HR MIN TEMP:  82; 6HR MAX TEMP:  91;

HARRISON       CLOUDY    80  69  69 SW10G20   29.89S
6HR MIN TEMP:  79; 6HR MAX TEMP:  81;

BENTONVILLE    PTCLDY    79  68  69 SW9       29.90S
6HR MIN TEMP:  79; 6HR MAX TEMP:  84;

ROGERS         MOCLDY    79  70  74 SW13      29.89S
6HR MIN TEMP:  79; 6HR MAX TEMP:  84; 6HR PCP: TRACE;

SILOAM SPGS    PTCLDY    81  66  61 SW18G26     N/A
6HR MIN TEMP:  79; 6HR MAX TEMP:  84;

HIGHFILL       PTCLDY    79  71  76 S12       29.88S
6HR MIN TEMP:  79; 6HR MAX TEMP:  84;

$$

ARZ004-005-016-020700-
NORTH CENTRAL ARKANSAS

CITY           SKY/WX    TMP DP  RH WIND       PRES   REMARKS
BATESVILLE     CLOUDY    81  72  74 SW9       29.87F
6HR MIN TEMP:  81; 6HR MAX TEMP:  82;

FLIPPIN        CLOUDY    79  70  73 S5        29.82F
6HR MIN TEMP:  79; 6HR MAX TEMP:  82;

MTN HOME       CLOUDY    78  70  76 SW8       29.84F
6HR MIN TEMP:  77; 6HR MAX TEMP:  80;

$$

ARZ040-041-020700-
WEST CENTRAL ARKANSAS

CITY           SKY/WX    TMP DP  RH WIND       PRES   REMARKS
MENA           CLEAR     81  70  69 SW7G17    29.96R
MOUNT IDA      PTCLDY    82  71  69 VRB6      29.90S HX  86
6HR MIN TEMP:  82; 6HR MAX TEMP:  86;

$$

ARZ009-017-025-026-028-020700-
NORTHEAST ARKANSAS

CITY           SKY/WX    TMP DP  RH WIND       PRES   REMARKS
JONESBORO      CLOUDY    80  73  79 SW10      29.88R
6HR MIN TEMP:  80; 6HR MAX TEMP:  85;

NEWPORT        CLOUDY    82  73  74 SW12      29.88R HX  87
6HR MIN TEMP:  82; 6HR MAX TEMP:  87;

WALNUT RIDGE   CLOUDY    81  70  69 S9        29.87R
6HR MIN TEMP:  81; 6HR MAX TEMP:  84;

BLYTHEVILLE    CLOUDY    81  74  79 SW13      29.89S HX  86
6HR MIN TEMP:  79; 6HR MAX TEMP:  85;

$$

ARZ022-023-033-042-044-020700-
CENTRAL ARKANSAS

CITY           SKY/WX    TMP DP  RH WIND       PRES   REMARKS
LITTLE ROCK    MOCLDY    81  72  74 SW10      29.90S
N LITTLE ROCK    N/A     81  74  79 SW10G21   29.90S HX  86
6HR MIN TEMP:  80; 6HR MAX TEMP:  86;

JACKSONVILLE   MOCLDY    82  72  70 SW12      29.89S HX  87
6HR MIN TEMP:  82; 6HR MAX TEMP:  88;

SEARCY         CLOUDY    79  73  82 SW7       29.90S
6HR MIN TEMP:  79; 6HR MAX TEMP:  84;

HOT SPRINGS    PTCLDY    81  71  71 SW7       29.92F HX  85
6HR MIN TEMP:  81; 6HR MAX TEMP:  87;

RUSSELLVILLE   MOCLDY    80  71  74 CALM      29.88F
6HR MIN TEMP:  80; 6HR MAX TEMP:  88;

CLINTON        MIX PCPN  75  73  94 CALM      29.90S
$$

ARZ036-020700-
EAST ARKANSAS

CITY           SKY/WX    TMP DP  RH WIND       PRES   REMARKS
WEST MEMPHIS   CLOUDY    80  74  81 S8        29.90S HX  85
6HR MIN TEMP:  79; 6HR MAX TEMP:  85; 6HR PCP: TRACE;

$$

ARZ050-053-066-070-073-020700-
SOUTHWEST ARKANSAS

CITY           SKY/WX    TMP DP  RH WIND       PRES   REMARKS
ARKADELPHIA    FAIR      80  74  82 SW9       29.92F
6HR MIN TEMP:  80; 6HR MAX TEMP:  90;

TEXARKANA      CLEAR     78  70  76 SW13      29.95F
6HR MIN TEMP:  78; 6HR MAX TEMP:  89;

EL DORADO      CLEAR     76  71  85 SW8       29.97S
6HR MIN TEMP:  76; 6HR MAX TEMP:  87;

DE QUEEN       CLEAR     77  73  87 SW6       29.91F
6HR MIN TEMP:  77; 6HR MAX TEMP:  88;

$$

ARZ056-057-069-020700-
SOUTHEAST ARKANSAS

CITY           SKY/WX    TMP DP  RH WIND       PRES   REMARKS
PINE BLUFF     PTCLDY    79  72  79 SW9       29.93S
6HR MIN TEMP:  79; 6HR MAX TEMP:  88;

STUTTGART      MOCLDY    81  72  74 SW10      29.90R
6HR MIN TEMP:  79; 6HR MAX TEMP:  88;

MONTICELLO     PTCLDY    79  72  79 SW8       29.94F
6HR MIN TEMP:  79; 6HR MAX TEMP:  87;


$$




USA.gov is the U.S. government's official web portal to all federal, state and local government web resources and services.